Orbital Elements
Epoch 2012 Sept. 30.0 TT = JDT 2456200.5
T 2012 Sept. 18.52606 TT MPC
q 2.0665481 (2000.0) P Q
n 0.12472862 Peri. 18.19982 +0.99098978 +0.06690564
a 3.9672719 Node 337.00175 -0.12554437 +0.76584934
e 0.4791010 Incl. 17.27610 +0.04666751 +0.63952985
P 7.90
From 581 observations 1996 Sept. 8-2012 Oct. 22, mean residual 0".6.
Nongravitational parameters A1 = -0.75, A2 = -0.0056.
|